Longville, MN

1:33 AM CDT on August 27, 2016 (GMT -0500)
Longville Municipal

Weather History for KXVG - October, 2012

Change the Weather History Date:

Saturday, October 6, 2012

  Actual Average (KPWC) Record (KPWC)
Temperature  
Mean Temperature 34 °F -  
Max Temperature 44 °F 58 °F 78 °F (2004)
Min Temperature 23 °F 36 °F 19 °F (2012)
Degree Days  
Heating Degree Days 31    
Moisture  
Dew Point 27 °F    
Average Humidity 77    
Maximum Humidity 100    
Minimum Humidity 46    
Precipitation  
Precipitation 0.02 in - - ()
Sea Level Pressure  
Sea Level Pressure 30.21 in    
Wind  
Wind Speed 4 mph (NW)    
Max Wind Speed 10 mph    
Max Gust Speed 16 mph    
Visibility 9 miles    
Events Snow    
Averages and records for this station are not official NWS values.
T = Trace of Precipitation, MM = Missing Value Source: NWS Daily Summary

Daily Weather History Graph

Daily Weather History Graph

Search for Another Location

Airport or City:

Trip Planner

Search our weather history database for the weather conditions in past years. The results will help you decide how hot, cold, wet, or windy it might be!

Date:

Astronomy

Oct. 06, 2012 Rise Set
Actual Time 7:23 AM CDT 6:45 PM CDT
Civil Twilight 6:52 AM CDT 7:15 PM CDT
Nautical Twilight 6:17 AM CDT 7:51 PM CDT
Astronomical Twilight 5:41 AM CDT 8:26 PM CDT
Moon 10:44 PM CDT (10/6) 1:35 PM CDT (10/6)
Length of Visible Light 12h 23m
Length of Day
11h 22m
Waning Gibbous, 65% of the Moon is Illuminated
Oct 6
Waning Gibbous
Oct 8
Last Quarter
Oct 15
New
Oct 21
First Quarter
Oct 29
Full

Hourly Weather History & Observations

Time (CDT) Temp. Windchill Dew Point Humidity Pressure Visibility Wind Dir Wind Speed Gust Speed Precip Events Conditions
12:16 AM 33.8 °F 30.8 °F 32.0 °F 93% 30.13 in 4.0 mi NNW 3.5 mph - N/A Snow Light Snow
12:56 AM 33.8 °F 30.8 °F 32.0 °F 93% 30.14 in 3.0 mi NNW 3.5 mph - N/A Snow Light Snow
1:16 AM 32.0 °F 26.4 °F 32.0 °F 100% 30.14 in 2.5 mi NNW 5.8 mph - N/A Snow Light Snow
1:36 AM 32.0 °F 27.5 °F 32.0 °F 100% 30.15 in 4.0 mi NNW 4.6 mph - N/A   Overcast
1:56 AM 32.0 °F 26.4 °F 32.0 °F 100% 30.15 in 4.0 mi NNW 5.8 mph - N/A Snow Light Snow
2:16 AM 32.0 °F 28.7 °F 32.0 °F 100% 30.16 in 2.0 mi North 3.5 mph - N/A Snow Light Snow
2:36 AM 32.0 °F 27.5 °F 30.2 °F 93% 30.16 in 2.5 mi North 4.6 mph - 0.01 in Snow Light Snow
2:56 AM 32.0 °F 26.4 °F 30.2 °F 93% 30.16 in 3.0 mi NNW 5.8 mph - N/A Snow Light Snow
3:16 AM 32.0 °F 28.7 °F 30.2 °F 93% 30.16 in 2.5 mi NNW 3.5 mph - N/A Snow Light Snow
3:36 AM 32.0 °F - 30.2 °F 93% 30.17 in 2.5 mi Calm Calm - 0.01 in Snow Light Snow
3:56 AM 32.0 °F 26.4 °F 30.2 °F 93% 30.17 in 2.5 mi NNW 5.8 mph - N/A Snow Light Snow
4:16 AM 32.0 °F 28.7 °F 30.2 °F 93% 30.18 in 10.0 mi North 3.5 mph - N/A   Overcast
4:36 AM 32.0 °F 27.5 °F 30.2 °F 93% 30.18 in 10.0 mi NNW 4.6 mph - N/A   Overcast
4:56 AM 32.0 °F 26.4 °F 30.2 °F 93% 30.19 in 10.0 mi NNW 5.8 mph - N/A   Mostly Cloudy
5:16 AM 30.2 °F 26.7 °F 28.4 °F 93% 30.19 in 10.0 mi NW 3.5 mph - N/A   Scattered Clouds
5:36 AM 30.2 °F 26.7 °F 28.4 °F 93% 30.20 in 10.0 mi NW 3.5 mph - N/A   Clear
5:56 AM 30.2 °F 24.3 °F 28.4 °F 93% 30.20 in 10.0 mi NW 5.8 mph - N/A   Clear
6:16 AM 30.2 °F 26.7 °F 28.4 °F 93% 30.21 in 10.0 mi NW 3.5 mph - N/A   Scattered Clouds
6:36 AM 30.2 °F 26.7 °F 28.4 °F 93% 30.21 in 10.0 mi NW 3.5 mph - N/A   Mostly Cloudy
6:56 AM 30.2 °F - 28.4 °F 93% 30.21 in 10.0 mi Calm Calm - N/A   Overcast
7:16 AM 30.2 °F - 28.4 °F 93% 30.22 in 10.0 mi Calm Calm - N/A   Overcast
7:36 AM 32.0 °F - 28.4 °F 87% 30.22 in 10.0 mi Calm Calm - N/A   Overcast
7:56 AM 32.0 °F 27.5 °F 28.4 °F 87% 30.23 in 10.0 mi NNW 4.6 mph - N/A   Overcast
8:36 AM 32.0 °F - 28.4 °F 87% 30.24 in 10.0 mi Calm Calm - N/A   Mostly Cloudy
9:16 AM 33.8 °F 29.6 °F 30.2 °F 87% 30.25 in 10.0 mi NNW 4.6 mph - N/A   Clear
9:36 AM 35.6 °F 31.7 °F 30.2 °F 81% 30.25 in 10.0 mi North 4.6 mph - N/A   Clear
9:56 AM 35.6 °F 31.7 °F 30.2 °F 81% 30.26 in 10.0 mi NNW 4.6 mph - N/A   Clear
10:16 AM 37.4 °F 32.1 °F 30.2 °F 75% 30.26 in 10.0 mi North 6.9 mph - N/A   Clear
10:36 AM 37.4 °F 32.1 °F 30.2 °F 75% 30.27 in 10.0 mi North 6.9 mph - N/A   Scattered Clouds
10:56 AM 37.4 °F 32.8 °F 28.4 °F 70% 30.27 in 10.0 mi NW 5.8 mph - N/A   Scattered Clouds
11:16 AM 37.4 °F 32.8 °F 28.4 °F 70% 30.28 in 10.0 mi North 5.8 mph - N/A   Scattered Clouds
11:36 AM 37.4 °F 32.8 °F 28.4 °F 70% 30.28 in 10.0 mi North 5.8 mph - N/A   Mostly Cloudy
11:56 AM 39.2 °F 35.0 °F 26.6 °F 61% 30.28 in 10.0 mi North 5.8 mph - N/A   Scattered Clouds
12:16 PM 37.4 °F 32.8 °F 26.6 °F 65% 30.28 in 10.0 mi NW 5.8 mph - N/A   Mostly Cloudy
12:36 PM 39.2 °F 34.2 °F 26.6 °F 61% 30.27 in 10.0 mi North 6.9 mph - N/A   Mostly Cloudy
12:56 PM 41.0 °F 38.0 °F 24.8 °F 53% 30.26 in 10.0 mi NNW 4.6 mph - N/A   Scattered Clouds
1:16 PM 42.8 °F 37.5 °F 24.8 °F 49% 30.26 in 10.0 mi WNW 9.2 mph - N/A   Scattered Clouds
1:36 PM 42.8 °F 38.6 °F 24.8 °F 49% 30.26 in 10.0 mi WNW 6.9 mph - N/A   Scattered Clouds
1:56 PM 42.8 °F 41.1 °F 23.0 °F 46% 30.24 in 10.0 mi WNW 3.5 mph - N/A   Scattered Clouds
2:16 PM 42.8 °F 38.6 °F 24.8 °F 49% 30.24 in 10.0 mi NW 6.9 mph - N/A   Scattered Clouds
2:36 PM 41.0 °F 35.8 °F 24.8 °F 53% 30.24 in 10.0 mi WNW 8.1 mph 16.1 mph N/A   Scattered Clouds
2:56 PM 42.8 °F 39.3 °F 24.8 °F 49% 30.23 in 10.0 mi WNW 5.8 mph - N/A   Mostly Cloudy
3:16 PM 41.0 °F 35.2 °F 24.8 °F 53% 30.23 in 10.0 mi WNW 9.2 mph 16.1 mph N/A   Scattered Clouds
3:36 PM 42.8 °F 41.1 °F 24.8 °F 49% 30.23 in 10.0 mi WNW 3.5 mph - N/A   Scattered Clouds
3:56 PM 42.8 °F 37.5 °F 23.0 °F 46% 30.22 in 10.0 mi West 9.2 mph - N/A   Scattered Clouds
4:16 PM 41.0 °F 36.4 °F 23.0 °F 49% 30.22 in 10.0 mi WNW 6.9 mph - N/A   Scattered Clouds
4:36 PM 44.6 °F 41.4 °F 24.8 °F 46% 30.21 in 10.0 mi NW 5.8 mph - N/A   Mostly Cloudy
4:56 PM 42.8 °F 39.3 °F 23.0 °F 46% 30.21 in 10.0 mi NW 5.8 mph - N/A   Scattered Clouds
5:16 PM 42.8 °F 38.0 °F 23.0 °F 46% 30.21 in 10.0 mi West 8.1 mph - N/A   Scattered Clouds
5:36 PM 42.8 °F 38.0 °F 23.0 °F 46% 30.21 in 10.0 mi NW 8.1 mph - N/A   Scattered Clouds
5:56 PM 41.0 °F 39.0 °F 24.8 °F 53% 30.21 in 10.0 mi NW 3.5 mph - N/A   Scattered Clouds
6:16 PM 41.0 °F 34.7 °F 24.8 °F 53% 30.21 in 10.0 mi West 10.4 mph - N/A   Mostly Cloudy
6:36 PM 39.2 °F 35.9 °F 23.0 °F 52% 30.21 in 10.0 mi WNW 4.6 mph - N/A   Mostly Cloudy
6:56 PM 37.4 °F 32.8 °F 24.8 °F 60% 30.20 in 10.0 mi WNW 5.8 mph - N/A   Scattered Clouds
7:16 PM 37.4 °F - 24.8 °F 60% 30.20 in 10.0 mi Calm Calm - N/A   Clear
7:36 PM 33.8 °F 29.6 °F 24.8 °F 70% 30.21 in 10.0 mi West 4.6 mph - N/A   Clear
7:56 PM 33.8 °F 30.8 °F 24.8 °F 70% 30.21 in 10.0 mi West 3.5 mph - N/A   Clear
8:16 PM 30.2 °F - 24.8 °F 80% 30.20 in 10.0 mi Calm Calm - N/A   Clear
8:36 PM 28.4 °F - 24.8 °F 86% 30.20 in 10.0 mi Calm Calm - N/A   Clear
8:56 PM 26.6 °F - 24.8 °F 93% 30.21 in 10.0 mi Calm Calm - N/A   Clear
9:16 PM 26.6 °F - 24.8 °F 93% 30.20 in 10.0 mi Calm Calm - N/A   Clear
9:37 PM 26.6 °F - 24.8 °F 93% 30.20 in 10.0 mi Calm Calm - N/A   Clear
9:56 PM 24.8 °F - 24.8 °F 100% 30.19 in 10.0 mi Calm Calm - N/A   Clear
10:16 PM 24.8 °F - 23.0 °F 93% 30.19 in 10.0 mi Calm Calm - N/A   Clear
10:36 PM 24.8 °F - 23.0 °F 93% 30.18 in 10.0 mi Calm Calm - N/A   Clear
10:56 PM 24.8 °F - 23.0 °F 93% 30.18 in 10.0 mi Calm Calm - N/A   Clear
11:16 PM 24.8 °F 20.5 °F 23.0 °F 93% 30.18 in 10.0 mi SW 3.5 mph - N/A   Clear
11:36 PM 24.8 °F - 23.0 °F 93% 30.17 in 10.0 mi Calm Calm - N/A   Clear
11:56 PM 23.0 °F - 21.2 °F 93% 30.16 in 10.0 mi Calm Calm - N/A   Clear